Location: Star Hoppers Observatory
(42.7905°N, 83.6127°W)
Time: 00:14:42
(UTC-04:00)

NOSS 3-1 (A) - Visible Passes

Search period start: 24 October 2017 00:00
Search period end: 03 November 2017 00:00
Orbit: 824 x 1388 km, 63.4° (Epoch: 21 October)

Date Brightness Start Highest point End Pass type
(mag) Time Alt. Az. Time Alt. Az. Time Alt. Az.
24 Oct 4.9 04:29:11 32° E 04:29:11 32° E 04:33:35 10° NE visible
24 Oct 3.8 06:16:40 34° W 06:18:39 45° NW 06:24:59 10° NNE visible
25 Oct 5.9 03:46:21 16° ENE 03:46:21 16° ENE 03:48:03 10° ENE visible
25 Oct 3.3 05:33:49 68° NW 05:33:49 68° NW 05:40:18 10° NNE visible
25 Oct 5.0 07:21:35 10° WNW 07:26:04 20° NNW 07:30:57 10° NNE visible
26 Oct 4.2 04:50:54 47° NE 04:50:54 47° NE 04:55:30 10° NE visible
26 Oct 4.6 06:38:22 21° WNW 06:40:43 26° NNW 06:46:17 10° NNE visible
27 Oct 5.4 04:07:55 24° NE 04:07:55 24° NE 04:10:32 10° NE visible
27 Oct 4.1 05:55:23 36° NW 05:55:32 36° NW 06:01:38 10° NNE visible
28 Oct 6.2 03:24:53 12° ENE 03:24:53 12° ENE 03:25:18 10° NE visible
28 Oct 4.3 05:12:21 40° N 05:12:21 40° N 05:16:58 10° NNE visible
28 Oct 5.2 06:59:49 12° NW 07:03:11 18° NNW 07:07:38 10° NNE visible
29 Oct 5.1 04:29:17 28° NNE 04:29:17 28° NNE 04:32:14 10° NE visible
29 Oct 4.8 06:16:43 21° NW 06:17:45 22° NNW 06:22:55 10° NNE visible
30 Oct 5.9 03:46:09 16° NE 03:46:09 16° NE 03:47:23 10° NE visible
30 Oct 4.7 05:33:36 28° NNW 05:33:36 28° NNW 05:38:16 10° NNE visible
30 Oct 5.5 07:22:41 10° NW 07:25:58 14° N 07:29:26 10° NNE visible
31 Oct 5.1 04:50:26 26° N 04:50:26 26° N 04:53:37 10° NNE visible
31 Oct 5.3 06:37:53 13° NW 06:40:21 16° NNW 06:44:22 10° NNE visible
01 Nov 5.7 04:07:15 18° NNE 04:07:15 18° NNE 04:08:55 10° NNE visible
01 Nov 5.1 05:54:42 19° NNW 05:54:51 19° NNW 05:59:35 10° NNE visible
02 Nov 6.3 03:24:02 10° NE 03:24:02 10° NE 03:24:09 10° NE visible
02 Nov 5.2 05:11:29 21° N 05:11:29 21° N 05:14:53 10° NNE visible
02 Nov 5.6 07:00:05 10° NNW 07:03:13 13° N 07:06:31 10° NNE visible
